Time,TemperatureF,DewpointF,PressureIn,WindDirection,WindDirectionDegrees,WindSpeedMPH,WindSpeedGustMPH,Humidity,HourlyPrecipIn,Conditions,Clouds,dailyrainin,SoftwareType,DateUTC
2013-07-02 00:30:00,63.0,-99.9,-100.00,NE,44,2.0,4.0,-999,-99.99,,,-99.99,,2013-07-02 05:30:00,
2013-07-02 00:43:00,65.0,-99.9,-100.00,ENE,70,6.0,8.0,-999,-99.99,,,-99.99,,2013-07-02 05:43:00,
2013-07-02 01:12:00,63.0,-99.9,-100.00,NE,44,2.0,4.0,-999,-99.99,,,-99.99,,2013-07-02 06:12:00,
2013-07-02 01:23:00,63.0,-99.9,-100.00,NE,44,2.0,4.0,-999,-99.99,,,-99.99,,2013-07-02 06:23:00,
2013-07-02 03:20:00,60.0,-99.9,-100.00,NNE,29,5.0,6.0,-999,-99.99,,,-99.99,,2013-07-02 08:20:00,
2013-07-02 04:12:00,60.0,-99.9,-100.00,NNE,29,5.0,6.0,-999,-99.99,,,-99.99,,2013-07-02 09:12:00,
2013-07-02 04:52:00,60.0,-99.9,-100.00,ENE,64,3.0,6.0,-999,-99.99,,,-99.99,,2013-07-02 09:52:00,
2013-07-02 05:01:00,60.0,-99.9,-100.00,ENE,64,3.0,6.0,-999,-99.99,,,-99.99,,2013-07-02 10:01:00,
2013-07-02 08:53:00,65.0,-99.9,-100.00,NE,46,7.0,8.0,-999,-99.99,,,-99.99,,2013-07-02 13:53:00,
2013-07-02 09:02:00,65.0,-99.9,-100.00,NE,46,7.0,8.0,-999,-99.99,,,-99.99,,2013-07-02 14:02:00,
2013-07-02 10:12:00,70.0,-99.9,-100.00,SE,125,10.0,12.0,-999,-99.99,,,-99.99,,2013-07-02 15:12:00,
2013-07-02 10:22:00,70.0,-99.9,-100.00,SE,125,10.0,12.0,-999,-99.99,,,-99.99,,2013-07-02 15:22:00,
2013-07-02 12:12:00,76.0,-99.9,-100.00,ESE,105,5.0,13.0,-999,-99.99,,,-99.99,,2013-07-02 17:12:00,
2013-07-02 12:30:00,79.0,-99.9,-100.00,ENE,70,10.0,10.0,-999,-99.99,,,-99.99,,2013-07-02 17:30:00,
2013-07-02 12:33:00,76.0,-99.9,-100.00,ENE,62,6.0,14.0,-999,-99.99,,,-99.99,,2013-07-02 17:33:00,
2013-07-02 13:23:00,79.0,-99.9,-100.00,ENE,70,10.0,10.0,-999,-99.99,,,-99.99,,2013-07-02 18:23:00,
2013-07-02 16:30:00,80.0,-99.9,-100.00,ESE,107,4.0,8.0,-999,-99.99,,,-99.99,,2013-07-02 21:30:00,
2013-07-02 18:00:00,80.0,-99.9,-100.00,ENE,78,7.0,13.0,-999,-99.99,,,-99.99,,2013-07-02 23:00:00,
2013-07-02 18:44:00,80.0,-99.9,-100.00,ENE,78,7.0,13.0,-999,-99.99,,,-99.99,,2013-07-02 23:44:00,
2013-07-02 18:52:00,80.0,-99.9,-100.00,ENE,78,7.0,13.0,-999,-99.99,,,-99.99,,2013-07-02 23:52:00,
2013-07-02 22:08:00,74.0,-99.9,-100.00,East,86,6.0,12.0,-999,-99.99,,,-99.99,,2013-07-03 03:08:00,
2013-07-02 22:13:00,74.0,-99.9,-100.00,East,86,6.0,12.0,-999,-99.99,,,-99.99,,2013-07-03 03:13:00,
2013-07-02 23:35:00,68.0,-99.9,-100.00,ENE,74,2.0,4.0,-999,-99.99,,,-99.99,,2013-07-03 04:35:00,